Location: Carnetin
(48.9010°N, 2.7059°E)
Time: 01:14:00
(UTC+00:00)

FENGYUN 1C DEB - Pass Details

Date: 18 August 2022
Orbit: 827 x 911 km, 98.8° (Epoch: 28 September)

Event Time Altitude Azimuth Distance (km) Brightness Sun altitude
Rises 20:22:18 0° 212° (SSW) 3,367 ? -12.7°
Reaches altitude 10° 20:25:33 10° 233° (SW) 2,432 ? -13.2°
Maximum altitude 20:28:53 17° 272° (W) 2,011 ? -13.6°
Drops below altitude 10° 20:32:14 10° 310° (NW) 2,440 ? -14.0°
Sets 20:35:32 0° 331° (NNW) 3,383 ? -14.4°
